Regional Weather Roundup
Issued by NWS

Home | Current Version | Previous Version | Text Only | Print | Product List | Glossary Off
Versions: 1 2 3 4 5 6 7 8 9 10 11 12 13 14 15 16 17 18 19 20 21 22 23 24 25 26 27 28 29 30 31 32 33 34 35 36 37 38 39 40 41 42 43 44 45 46 47 48 49 50

793
ASUS43 KFSD 241610
RWRSD

WEATHER ROUNDUP FOR SOUTH DAKOTA
NATIONAL WEATHER SERVICE SIOUX FALLS SD
1100 AM CDT SUN JUL 24 2016

NOTE: "FAIR" INDICATES FEW OR NO CLOUDS BELOW 12,000 FEET WITH NO
SIGNIFICANT WEATHER AND/OR OBSTRUCTIONS TO VISIBILITY.


SDZ001>005-009-010-012>017-241700-
NORTHWEST AND NORTH CENTRAL SOUTH DAKOTA

CITY           SKY/WX    TMP DP  RH WIND       PRES   REMARKS
BUFFALO          N/A     76  49  38 S5        30.08R
FAITH            N/A     68  50  52 W5        30.13R
MOBRIDGE       CLOUDY    73  59  61 N12       30.01F
$$

SDZ012>016-024>037-041>051-057-063-072>074-241700-
SOUTHWEST AND SOUTH CENTRAL SOUTH DAKOTA

CITY           SKY/WX    TMP DP  RH WIND       PRES   REMARKS
RAPID CTY ARPT PTSUNNY   75  53  46 SW8       30.16S
PIERRE         MOSUNNY   72  58  61 NW8       30.05R
CUSTER         CLOUDY    67  45  45 E8        30.28S
ELLSWORTH AFB  CLOUDY    72  52  49 S7        30.16R
PHILIP         CLOUDY    73  57  57 VRB3      30.10R
PINE RIDGE     MOSUNNY   76  52  43 E12       30.16F
WINNER         PTSUNNY   78  53  41 N9        30.11R
$$

SDZ004>011-016>023-039-040-241700-
NORTHEAST SOUTH DAKOTA

CITY           SKY/WX    TMP DP  RH WIND       PRES   REMARKS
ABERDEEN       CLOUDY    75  60  59 NW13      30.01S
WATERTOWN      CLOUDY    74  60  61 N15       29.99F
BROOKINGS      CLOUDY    74  61  63 N13       30.00S
SISSETON         N/A     75  62  64 NW10      29.95F
$$

SDZ017-020-022-023-036>040-048>070-241700-
SOUTHEAST SOUTH DAKOTA

CITY           SKY/WX    TMP DP  RH WIND       PRES   REMARKS
SIOUX FALLS    PTSUNNY   76  61  59 N13       30.00S
HURON          CLOUDY    75  60  59 N8        30.02R
CHAMBERLAIN    PTSUNNY   77  60  55 CALM      30.07R
MITCHELL       CLOUDY    75  61  61 N8        30.04R
YANKTON        SUNNY     81  57  44 NW10      30.00S
$$

ABBREVIATIONS USED IN REMARKS
   TC - TEMPERATURE IN CELSIUS
  WCI - WIND CHILL INDEX
   HX - HEAT INDEX
  VSB - VISIBILITY





USA.gov is the U.S. government's official web portal to all federal, state and local government web resources and services.